Simultaneous Nadir Overpasses (SNOs) Predictions

Prediction of SNOs between GOES-17 and LANDSAT-8 Satellite Orbit:

Table of predicted SNOs for the next 14.0 days since TLE Epoch: 1/21/2023
Index Date Time (GOES-17) GOES-17 Lat,Lon LANDSAT-8 Lat,Lon Distance(km) Time Diff (sec)
1 01/22/2023 06:33:51 -0.01,-125.50 -0.07,-125.63 15.64 80
2 01/24/2023 06:24:13 -0.01,-123.17 0.09,-122.58 67.27 80
3 01/26/2023 06:11:55 -0.02,-120.85 0.27,-119.53 150.19 80
4 01/26/2023 18:30:29 0.02,-120.27 0.93,-124.67 499.91 80
5 01/28/2023 05:59:36 -0.02,-118.53 0.41,-116.47 233.15 80
6 01/28/2023 18:18:10 0.02,-117.94 0.78,-121.61 417.01 80
7 01/30/2023 05:47:17 -0.02,-116.20 0.58,-113.42 315.91 80
8 01/30/2023 18:05:51 0.01,-115.61 0.61,-118.56 334.35 80
9 02/01/2023 05:34:57 -0.02,-113.87 0.71,-110.36 398.49 80
10 02/01/2023 17:53:31 0.01,-113.28 0.47,-115.50 251.79 80
11 02/03/2023 05:22:38 -0.02,-111.54 0.87,-107.30 481.10 80
12 02/03/2023 17:41:11 0.02,-110.95 0.31,-112.44 169.18 80
